TRA6423 EHAM-LPPD

Flight info

Callsign TRA6423
Flight time N/A
Altitude 36000
Route WOODY N872 CIV DCT KOVIN DCT NIDUV DCT KIHVI DCT PON DCT DITAL DCT GODIX DCT DIDAK DCT KURIS DCT TERPO DCT ERIGA DCT AZFIC DCT LOTEE DCT PETEK DCT ERPES/M077F360 DCT LENSI DCT BEKUN DCT OMOBI
Aircraft A21N/M-SBDE2E3FGHIJ1J5M1P2RWXYZ/LB1D1G1

Departure

Time 2026-05-07 16:04
Airport Amsterdam Airport Schiphol (EHAM)

Arrival

Time N/A
Airport João Paulo II Airport (LPPD)
Time Latitude Longitude Altitude Speed Heading
2026-05-07 15:05 52.30377 4.76398 4 ft 0 kts 238°
2026-05-07 15:49 52.30379 4.76404 4 ft 3 kts 238°
2026-05-07 15:49 52.30395 4.76439 4 ft 4 kts 221°
2026-05-07 15:50 52.30413 4.76452 4 ft 3 kts 161°
2026-05-07 15:50 52.30416 4.76451 4 ft 0 kts 158°
2026-05-07 15:54 52.30406 4.76461 4 ft 3 kts 149°
2026-05-07 15:54 52.30383 4.76484 4 ft 5 kts 148°
2026-05-07 15:54 52.30346 4.76520 4 ft 7 kts 153°
2026-05-07 15:55 52.30293 4.76506 4 ft 9 kts 223°
2026-05-07 15:55 52.30250 4.76409 4 ft 12 kts 237°
2026-05-07 15:55 52.30203 4.76287 4 ft 14 kts 238°
2026-05-07 15:55 52.30150 4.76144 4 ft 16 kts 238°
2026-05-07 15:56 52.30102 4.76016 4 ft 11 kts 238°
2026-05-07 15:56 52.30093 4.75993 4 ft 0 kts 239°
2026-05-07 15:56 52.30089 4.75981 4 ft 2 kts 237°
2026-05-07 15:57 52.30075 4.75947 4 ft 5 kts 237°
2026-05-07 15:57 52.30052 4.75889 4 ft 7 kts 237°
2026-05-07 15:57 52.30021 4.75807 4 ft 10 kts 238°
2026-05-07 15:57 52.29980 4.75703 4 ft 12 kts 238°
2026-05-07 15:58 52.29931 4.75576 4 ft 14 kts 238°
2026-05-07 15:58 52.29876 4.75433 4 ft 16 kts 237°
2026-05-07 15:58 52.29829 4.75269 4 ft 17 kts 274°
2026-05-07 15:58 52.29893 4.75101 5 ft 19 kts 311°
2026-05-07 15:59 52.29981 4.74938 5 ft 20 kts 311°
2026-05-07 15:59 52.30074 4.74763 6 ft 21 kts 312°
2026-05-07 15:59 52.30176 4.74576 15 ft 23 kts 311°
2026-05-07 15:59 52.30284 4.74375 14 ft 24 kts 311°
2026-05-07 16:00 52.30398 4.74202 4 ft 23 kts 348°
2026-05-07 16:00 52.30562 4.74207 4 ft 24 kts
2026-05-07 16:00 52.30734 4.74221 4 ft 25 kts
2026-05-07 16:00 52.30916 4.74237 4 ft 27 kts
2026-05-07 16:01 52.31107 4.74257 4 ft 28 kts
2026-05-07 16:01 52.31291 4.74273 4 ft 22 kts
2026-05-07 16:01 52.31385 4.74338 4 ft 15 kts 76°
2026-05-07 16:01 52.31394 4.74514 4 ft 17 kts 86°
2026-05-07 16:02 52.31421 4.74663 5 ft 13 kts 31°
2026-05-07 16:02 52.31492 4.74669 5 ft 8 kts 356°
2026-05-07 16:02 52.31553 4.74663 4 ft 10 kts 356°
2026-05-07 16:02 52.31628 4.74672 5 ft 12 kts 22°
2026-05-07 16:03 52.31664 4.74729 5 ft 8 kts 71°
2026-05-07 16:03 52.31670 4.74824 4 ft 9 kts 83°
2026-05-07 16:03 52.31678 4.75074 2 ft 48 kts 85°
2026-05-07 16:03 52.31710 4.75991 4 ft 111 kts 86°
2026-05-07 16:04 52.31763 4.77547 4 ft 161 kts 86°
2026-05-07 16:04 52.31820 4.79442 434 ft 165 kts 85°
2026-05-07 16:04 52.31878 4.81346 1000 ft 173 kts 92°
2026-05-07 16:04 52.31304 4.83149 1365 ft 194 kts 138°
2026-05-07 16:05 52.30025 4.83980 1912 ft 208 kts 169°
2026-05-07 16:05 52.28544 4.84237 2541 ft 221 kts 172°
2026-05-07 16:05 52.26956 4.84551 3085 ft 237 kts 171°
2026-05-07 16:05 52.25292 4.84831 3835 ft 245 kts 178°
2026-05-07 16:06 52.23535 4.84805 4435 ft 259 kts 181°
2026-05-07 16:06 52.21714 4.84747 5203 ft 264 kts 181°
2026-05-07 16:06 52.19875 4.84692 5793 ft 262 kts 181°
2026-05-07 16:06 52.18066 4.84644 6365 ft 262 kts 180°
2026-05-07 16:07 52.16231 4.84601 7142 ft 265 kts 181°
2026-05-07 16:07 52.14372 4.84560 7916 ft 268 kts 181°
2026-05-07 16:07 52.12491 4.84519 8709 ft 273 kts 181°
2026-05-07 16:07 52.10580 4.84479 9489 ft 278 kts 181°
2026-05-07 16:08 52.08633 4.84438 10227 ft 283 kts 181°
2026-05-07 16:08 52.06597 4.84395 10622 ft 302 kts 182°
2026-05-07 16:08 52.04425 4.84347 10927 ft 322 kts 181°
2026-05-07 16:08 52.02149 4.84075 11409 ft 332 kts 193°
2026-05-07 16:09 51.99971 4.82808 12112 ft 335 kts 206°
2026-05-07 16:09 51.97860 4.81132 12857 ft 339 kts 207°
2026-05-07 16:09 51.95742 4.79417 13574 ft 343 kts 207°
2026-05-07 16:09 51.93583 4.77690 14231 ft 347 kts 207°
2026-05-07 16:10 51.91431 4.75988 14878 ft 350 kts 207°
2026-05-07 16:10 51.89224 4.74250 15430 ft 358 kts 207°
2026-05-07 16:10 51.86939 4.72460 15732 ft 372 kts 206°
2026-05-07 16:10 51.84570 4.70607 15976 ft 385 kts 206°
2026-05-07 16:11 51.82092 4.68672 16177 ft 397 kts 207°
2026-05-07 16:11 51.79601 4.66731 16367 ft 407 kts 207°
2026-05-07 16:11 51.77016 4.64718 16590 ft 415 kts 206°
2026-05-07 16:11 51.74401 4.62690 16952 ft 418 kts 207°
2026-05-07 16:12 51.71773 4.60651 17337 ft 421 kts 206°
2026-05-07 16:12 51.69126 4.58600 17704 ft 423 kts 206°
2026-05-07 16:12 51.66461 4.56538 18076 ft 426 kts 206°
2026-05-07 16:12 51.63783 4.54470 18436 ft 428 kts 206°
2026-05-07 16:13 51.61090 4.52392 18768 ft 430 kts 206°
2026-05-07 16:13 51.58387 4.50313 19109 ft 432 kts 206°
2026-05-07 16:13 51.55663 4.48218 19446 ft 433 kts 206°
2026-05-07 16:13 51.52947 4.46130 19789 ft 435 kts 206°
2026-05-07 16:14 51.50210 4.44031 20135 ft 437 kts 206°
2026-05-07 16:14 51.47457 4.41921 20480 ft 438 kts 206°
2026-05-07 16:14 51.44698 4.39813 20813 ft 440 kts 206°
2026-05-07 16:14 51.41932 4.37703 21172 ft 442 kts 206°
2026-05-07 16:15 51.39155 4.35586 21537 ft 443 kts 206°
2026-05-07 16:15 51.36360 4.33460 21908 ft 445 kts 206°
2026-05-07 16:15 51.33556 4.31332 22296 ft 447 kts 206°
2026-05-07 16:15 51.30735 4.29191 22673 ft 449 kts 206°
2026-05-07 16:16 51.27912 4.27043 23036 ft 451 kts 207°
2026-05-07 16:16 51.25073 4.24886 23408 ft 454 kts 206°
2026-05-07 16:16 51.22218 4.22723 23775 ft 455 kts 206°
2026-05-07 16:16 51.19335 4.20542 24111 ft 457 kts 206°
2026-05-07 16:17 51.16452 4.18434 24547 ft 456 kts 204°
2026-05-07 16:17 51.13473 4.16716 25001 ft 455 kts 200°
2026-05-07 16:17 51.10478 4.15074 25443 ft 454 kts 200°
2026-05-07 16:17 51.07499 4.13449 25894 ft 452 kts 200°
2026-05-07 16:18 51.04527 4.11826 26342 ft 451 kts 200°
2026-05-07 16:18 51.01561 4.10205 26793 ft 450 kts 200°
2026-05-07 16:18 50.98612 4.08596 27242 ft 448 kts 200°
2026-05-07 16:18 50.95660 4.06984 27682 ft 447 kts 200°
2026-05-07 16:19 50.92724 4.05384 28100 ft 446 kts 200°
2026-05-07 16:19 50.89825 4.03807 28526 ft 445 kts 200°
2026-05-07 16:19 50.86889 4.02106 28953 ft 443 kts 203°
2026-05-07 16:19 50.84071 4.00307 29371 ft 442 kts 204°
2026-05-07 16:20 50.81228 3.98485 29797 ft 441 kts 204°
2026-05-07 16:20 50.78384 3.96663 30177 ft 440 kts 204°
2026-05-07 16:20 50.75545 3.94847 30503 ft 440 kts 204°
2026-05-07 16:20 50.72710 3.93036 30822 ft 439 kts 204°
2026-05-07 16:21 50.69882 3.91231 31143 ft 439 kts 204°
2026-05-07 16:21 50.67056 3.89430 31455 ft 438 kts 204°
2026-05-07 16:21 50.64229 3.87631 31761 ft 438 kts 204°
2026-05-07 16:21 50.61403 3.85836 32077 ft 437 kts 204°
2026-05-07 16:22 50.58585 3.84048 32376 ft 437 kts 204°
2026-05-07 16:22 50.55787 3.82194 32663 ft 436 kts 206°
2026-05-07 16:22 50.53007 3.80302 32956 ft 435 kts 206°
2026-05-07 16:22 50.50228 3.78409 33238 ft 434 kts 206°
2026-05-07 16:23 50.47463 3.76520 33510 ft 434 kts 206°
2026-05-07 16:23 50.44693 3.74631 33768 ft 433 kts 206°
2026-05-07 16:23 50.41922 3.72746 34013 ft 433 kts 206°
2026-05-07 16:23 50.39162 3.70872 34221 ft 433 kts 206°
2026-05-07 16:24 50.36398 3.68998 34391 ft 433 kts 206°
2026-05-07 16:24 50.33631 3.67124 34569 ft 432 kts 206°
2026-05-07 16:24 50.30871 3.65258 34736 ft 432 kts 206°
2026-05-07 16:24 50.28114 3.63395 34901 ft 432 kts 206°
2026-05-07 16:25 50.25349 3.61530 35053 ft 433 kts 206°
2026-05-07 16:25 50.19847 3.57822 35083 ft 433 kts 206°
2026-05-07 16:26 50.14310 3.54103 35059 ft 433 kts 206°
2026-05-07 16:26 50.08778 3.50395 35055 ft 433 kts 206°
2026-05-07 16:27 50.04136 3.47294 35055 ft 433 kts 206°
2026-05-07 16:27 49.98638 3.43624 35050 ft 434 kts 206°
2026-05-07 16:28 49.93099 3.39939 35043 ft 433 kts 206°
2026-05-07 16:28 49.87566 3.36266 35043 ft 433 kts 205°
2026-05-07 16:29 49.82027 3.32601 35044 ft 433 kts 205°
2026-05-07 16:29 49.76487 3.28943 35044 ft 433 kts 205°
2026-05-07 16:30 49.70958 3.25298 35042 ft 433 kts 205°
2026-05-07 16:30 49.65423 3.21661 35038 ft 433 kts 205°
2026-05-07 16:31 49.59885 3.18032 35039 ft 432 kts 205°
2026-05-07 16:31 49.54342 3.14410 35041 ft 432 kts 205°
2026-05-07 16:32 49.49167 3.09878 35040 ft 427 kts 222°
2026-05-07 16:32 49.47126 3.06579 35032 ft 427 kts 234°
2026-05-07 16:32 49.45528 3.02740 35038 ft 426 kts 241°
2026-05-07 16:33 49.42660 2.94785 35039 ft 425 kts 241°
2026-05-07 16:33 49.39753 2.86884 35043 ft 425 kts 241°
2026-05-07 16:34 49.36819 2.79007 35041 ft 425 kts 240°
2026-05-07 16:34 49.33905 2.71115 35043 ft 425 kts 242°
2026-05-07 16:35 49.31101 2.63139 35043 ft 425 kts 242°
2026-05-07 16:35 49.28316 2.55222 35045 ft 425 kts 242°
2026-05-07 16:36 49.25498 2.47244 35041 ft 426 kts 242°
2026-05-07 16:36 49.22684 2.39299 35044 ft 425 kts 242°
2026-05-07 16:37 49.19857 2.31342 35031 ft 425 kts 242°
2026-05-07 16:37 49.16966 2.23458 35030 ft 425 kts 241°
2026-05-07 16:38 49.14047 2.15603 35029 ft 425 kts 241°
2026-05-07 16:38 49.11135 2.07749 35022 ft 425 kts 241°
2026-05-07 16:39 49.08426 1.99715 35025 ft 426 kts 245°
2026-05-07 16:39 49.06028 1.91715 35010 ft 426 kts 245°
2026-05-07 16:40 49.03527 1.83410 35031 ft 426 kts 245°
2026-05-07 16:40 49.01067 1.75262 35037 ft 426 kts 245°
2026-05-07 16:41 48.98582 1.67070 35031 ft 427 kts 245°
2026-05-07 16:41 48.96087 1.58873 35029 ft 426 kts 245°
2026-05-07 16:42 48.93583 1.50687 35031 ft 426 kts 245°
2026-05-07 16:42 48.91084 1.42513 35027 ft 426 kts 245°
2026-05-07 16:43 48.88575 1.34348 35027 ft 426 kts 245°
2026-05-07 16:43 48.86058 1.26193 35031 ft 426 kts 245°
2026-05-07 16:44 48.83537 1.18040 35028 ft 426 kts 245°
2026-05-07 16:44 48.81060 1.10063 35028 ft 426 kts 244°
2026-05-07 16:45 48.78530 1.01952 35023 ft 427 kts 244°
2026-05-07 16:45 48.75993 0.93820 35028 ft 427 kts 244°
2026-05-07 16:46 48.73243 0.85869 35026 ft 427 kts 239°
2026-05-07 16:46 48.70137 0.78204 35021 ft 427 kts 238°
2026-05-07 16:47 48.67025 0.70552 35020 ft 426 kts 238°
2026-05-07 16:47 48.63921 0.62909 35017 ft 426 kts 238°
2026-05-07 16:48 48.60811 0.55282 35019 ft 426 kts 238°
2026-05-07 16:48 48.57697 0.47665 35013 ft 426 kts 238°
2026-05-07 16:49 48.54579 0.40059 35018 ft 426 kts 238°
2026-05-07 16:49 48.51456 0.32463 35008 ft 426 kts 238°
2026-05-07 16:50 48.48350 0.24927 35012 ft 426 kts 238°
2026-05-07 16:50 48.45221 0.17357 35008 ft 426 kts 238°
2026-05-07 16:51 48.42088 0.09802 35004 ft 425 kts 238°
2026-05-07 16:51 48.38948 0.02259 35010 ft 425 kts 238°
2026-05-07 16:52 48.35766 -0.05239 35007 ft 426 kts 234°
2026-05-07 16:52 48.32235 -0.12412 35008 ft 426 kts 233°
2026-05-07 16:53 48.28678 -0.19538 35004 ft 426 kts 233°
2026-05-07 16:53 48.25130 -0.26668 35002 ft 426 kts 233°
2026-05-07 16:54 48.21532 -0.33724 35001 ft 425 kts 232°
2026-05-07 16:54 48.17934 -0.40743 34999 ft 424 kts 232°
2026-05-07 16:55 48.14362 -0.47712 34998 ft 424 kts 232°
2026-05-07 16:55 48.10765 -0.54720 34995 ft 424 kts 232°
2026-05-07 16:56 48.07162 -0.61711 34995 ft 424 kts 232°
2026-05-07 16:56 48.01749 -0.72193 34995 ft 425 kts 232°
2026-05-07 16:57 47.98141 -0.79159 34993 ft 423 kts 232°
2026-05-07 16:57 47.94536 -0.86095 35006 ft 423 kts 232°
2026-05-07 16:58 47.90934 -0.93007 34997 ft 422 kts 232°
2026-05-07 16:58 47.87325 -0.99927 34982 ft 423 kts 232°
2026-05-07 16:59 47.83711 -1.06826 34976 ft 422 kts 232°
2026-05-07 16:59 47.80088 -1.13708 34978 ft 422 kts 232°
2026-05-07 17:00 47.76484 -1.20557 34974 ft 420 kts 231°
2026-05-07 17:00 47.72872 -1.27410 34979 ft 421 kts 231°
2026-05-07 17:01 47.69248 -1.34265 34966 ft 422 kts 231°
2026-05-07 17:01 47.65640 -1.41078 34963 ft 422 kts 231°
2026-05-07 17:02 47.62006 -1.47919 34962 ft 422 kts 231°
2026-05-07 17:02 47.58251 -1.54593 34953 ft 422 kts 228°
2026-05-07 17:03 47.54327 -1.61039 34962 ft 421 kts 227°
2026-05-07 17:03 47.50415 -1.67462 34971 ft 421 kts 227°
2026-05-07 17:04 47.46489 -1.73908 34961 ft 422 kts 227°
2026-05-07 17:04 47.42564 -1.80347 34963 ft 422 kts 227°
2026-05-07 17:05 47.38629 -1.86780 34958 ft 422 kts 227°
2026-05-07 17:05 47.34559 -1.92980 34956 ft 419 kts 219°
2026-05-07 17:06 47.29658 -1.97669 34967 ft 420 kts 211°
2026-05-07 17:06 47.24642 -2.02080 34963 ft 420 kts 212°
2026-05-07 17:07 47.19633 -2.06522 34971 ft 421 kts 212°
2026-05-07 17:07 47.14609 -2.10998 34960 ft 422 kts 212°
2026-05-07 17:08 47.09599 -2.15452 34957 ft 422 kts 212°
2026-05-07 17:08 47.04587 -2.19897 34956 ft 421 kts 212°
2026-05-07 17:09 46.99564 -2.24342 34957 ft 421 kts 211°
2026-05-07 17:09 46.94577 -2.28740 34953 ft 421 kts 211°
2026-05-07 17:10 46.89561 -2.33165 34963 ft 421 kts 212°
2026-05-07 17:10 46.85132 -2.38687 34961 ft 422 kts 231°
2026-05-07 17:11 46.82076 -2.46012 34978 ft 424 kts 239°
2026-05-07 17:11 46.79171 -2.53552 34967 ft 426 kts 239°
2026-05-07 17:12 46.76219 -2.61043 34969 ft 426 kts 239°
2026-05-07 17:12 46.73248 -2.68525 34969 ft 426 kts 239°
2026-05-07 17:13 46.70781 -2.74726 34971 ft 426 kts 239°
2026-05-07 17:13 46.67803 -2.82185 34968 ft 426 kts 238°
2026-05-07 17:14 46.64810 -2.89662 34969 ft 428 kts 239°
2026-05-07 17:14 46.61808 -2.97131 34969 ft 428 kts 239°
2026-05-07 17:15 46.58805 -3.04611 34970 ft 428 kts 239°
2026-05-07 17:15 46.55423 -3.11693 34970 ft 428 kts 227°
2026-05-07 17:16 46.51303 -3.17909 34966 ft 427 kts 225°
2026-05-07 17:16 46.47161 -3.24091 34969 ft 429 kts 226°
2026-05-07 17:17 46.43013 -3.30327 34967 ft 430 kts 226°
2026-05-07 17:17 46.38861 -3.36558 34967 ft 430 kts 226°
2026-05-07 17:18 46.34704 -3.42770 34967 ft 429 kts 226°
2026-05-07 17:18 46.30571 -3.48927 34963 ft 429 kts 226°
2026-05-07 17:19 46.26407 -3.55130 34964 ft 430 kts 226°
2026-05-07 17:19 46.22236 -3.61319 34965 ft 432 kts 226°
2026-05-07 17:20 46.18035 -3.67538 34966 ft 433 kts 226°
2026-05-07 17:20 46.13834 -3.73751 34964 ft 432 kts 226°
2026-05-07 17:21 46.09628 -3.79953 34961 ft 433 kts 226°
2026-05-07 17:21 46.05436 -3.86123 34961 ft 433 kts 226°
2026-05-07 17:22 46.01223 -3.92304 34956 ft 433 kts 226°
2026-05-07 17:22 45.96999 -3.98487 34959 ft 435 kts 227°
2026-05-07 17:23 45.92750 -4.04691 34958 ft 435 kts 227°
2026-05-07 17:23 45.88495 -4.10889 34951 ft 436 kts 227°
2026-05-07 17:24 45.84237 -4.17081 34952 ft 435 kts 227°
2026-05-07 17:24 45.79977 -4.23267 34953 ft 436 kts 227°
2026-05-07 17:25 45.75711 -4.29437 34954 ft 436 kts 227°
2026-05-07 17:25 45.71442 -4.35606 34953 ft 436 kts 226°
2026-05-07 17:26 45.67169 -4.41753 34949 ft 436 kts 226°
2026-05-07 17:26 45.62914 -4.47870 34950 ft 436 kts 226°
2026-05-07 17:27 45.58639 -4.54001 34947 ft 436 kts 226°
2026-05-07 17:27 45.54352 -4.60135 34947 ft 436 kts 226°
2026-05-07 17:28 45.50068 -4.66250 34944 ft 436 kts 226°
2026-05-07 17:28 45.45760 -4.72389 34939 ft 439 kts 227°
2026-05-07 17:29 45.41445 -4.78516 34940 ft 439 kts 227°
2026-05-07 17:29 45.37118 -4.84651 34939 ft 438 kts 227°
2026-05-07 17:30 45.32793 -4.90773 34936 ft 438 kts 227°
2026-05-07 17:30 45.28494 -4.96836 34936 ft 438 kts 227°
2026-05-07 17:31 45.24161 -5.02937 34923 ft 439 kts 227°
2026-05-07 17:31 45.19812 -5.09046 34931 ft 439 kts 227°
2026-05-07 17:32 45.15466 -5.15132 34928 ft 439 kts 227°
2026-05-07 17:32 45.11114 -5.21217 34926 ft 440 kts 227°
2026-05-07 17:33 45.06763 -5.27291 34914 ft 440 kts 227°
2026-05-07 17:33 45.02401 -5.33362 34922 ft 440 kts 227°
2026-05-07 17:34 44.98040 -5.39419 34917 ft 438 kts 227°
2026-05-07 17:34 44.93691 -5.45447 34917 ft 438 kts 227°
2026-05-07 17:35 44.89343 -5.51457 34918 ft 438 kts 227°
2026-05-07 17:35 44.84993 -5.57462 34902 ft 437 kts 227°
2026-05-07 17:36 44.80638 -5.63458 34913 ft 438 kts 227°
2026-05-07 17:36 44.76282 -5.69435 34914 ft 437 kts 227°
2026-05-07 17:37 44.71929 -5.75390 34910 ft 435 kts 227°
2026-05-07 17:37 44.67602 -5.81349 34908 ft 434 kts 230°
2026-05-07 17:38 44.65760 -5.84682 34904 ft 430 kts 241°
2026-05-07 17:38 44.64435 -5.88415 34923 ft 427 kts 250°
2026-05-07 17:38 44.62276 -5.96159 34910 ft 427 kts 251°
2026-05-07 17:39 44.60094 -6.03910 34909 ft 427 kts 250°
2026-05-07 17:39 44.57894 -6.11592 34907 ft 426 kts 251°
2026-05-07 17:40 44.55678 -6.19285 34919 ft 425 kts 251°
2026-05-07 17:40 44.53457 -6.26953 34907 ft 425 kts 251°
2026-05-07 17:41 44.51239 -6.34612 34906 ft 425 kts 251°
2026-05-07 17:41 44.49005 -6.42280 34902 ft 424 kts 251°
2026-05-07 17:42 44.46778 -6.49919 34898 ft 422 kts 251°
2026-05-07 17:42 44.44554 -6.57520 34904 ft 422 kts 251°
2026-05-07 17:43 44.42329 -6.65112 34911 ft 422 kts 251°
2026-05-07 17:43 44.40096 -6.72691 34905 ft 421 kts 251°
2026-05-07 17:44 44.37867 -6.80241 34901 ft 420 kts 251°
2026-05-07 17:44 44.35646 -6.87738 34895 ft 419 kts 251°
2026-05-07 17:45 44.33415 -6.95245 34903 ft 418 kts 251°
2026-05-07 17:45 44.31184 -7.02747 34897 ft 419 kts 251°
2026-05-07 17:46 44.28927 -7.10299 34899 ft 419 kts 251°
2026-05-07 17:46 44.26677 -7.17752 34892 ft 419 kts 251°
2026-05-07 17:47 44.24421 -7.25236 34890 ft 418 kts 251°
2026-05-07 17:47 44.22168 -7.32715 34893 ft 418 kts 251°
2026-05-07 17:48 44.19925 -7.40179 34892 ft 418 kts 251°
2026-05-07 17:48 44.17667 -7.47646 34875 ft 418 kts 250°
2026-05-07 17:49 44.15403 -7.55076 34890 ft 416 kts 250°
2026-05-07 17:49 44.13133 -7.62499 34884 ft 415 kts 250°
2026-05-07 17:50 44.10891 -7.69873 34886 ft 414 kts 250°
2026-05-07 17:50 44.08641 -7.77238 34889 ft 414 kts 250°
2026-05-07 17:51 44.06376 -7.84594 34888 ft 414 kts 250°
2026-05-07 17:51 44.04106 -7.91948 34885 ft 414 kts 250°
2026-05-07 17:52 44.01834 -7.99296 34889 ft 414 kts 250°
2026-05-07 17:52 43.99555 -8.06638 34881 ft 414 kts 250°
2026-05-07 17:53 43.97273 -8.13975 34882 ft 414 kts 250°
2026-05-07 17:53 43.94983 -8.21311 34884 ft 414 kts 250°
2026-05-07 17:54 43.92714 -8.28584 34879 ft 414 kts 250°
2026-05-07 17:54 43.90421 -8.35885 34871 ft 412 kts 249°
2026-05-07 17:55 43.88125 -8.43155 34882 ft 411 kts 249°
2026-05-07 17:55 43.85843 -8.50414 34881 ft 411 kts 249°
2026-05-07 17:56 43.83551 -8.57673 34887 ft 411 kts 249°
2026-05-07 17:56 43.81254 -8.64898 34887 ft 411 kts 249°
2026-05-07 17:57 43.79341 -8.70912 34885 ft 411 kts 249°
2026-05-07 17:57 43.76632 -8.79366 34884 ft 411 kts 248°
2026-05-07 17:58 43.74322 -8.86591 34883 ft 411 kts 249°
2026-05-07 17:58 43.72013 -8.93810 34884 ft 410 kts 248°
2026-05-07 17:59 43.69699 -9.01023 34891 ft 411 kts 248°
2026-05-07 17:59 43.67374 -9.08228 34890 ft 411 kts 248°
2026-05-07 18:00 43.65437 -9.14232 34890 ft 412 kts 248°
2026-05-07 18:00 43.63098 -9.21450 34895 ft 412 kts 248°
2026-05-07 18:01 43.60748 -9.28673 34894 ft 412 kts 248°
2026-05-07 18:01 43.58404 -9.35871 34893 ft 412 kts 248°
2026-05-07 18:02 43.54869 -9.46679 34889 ft 412 kts 247°
2026-05-07 18:03 43.52506 -9.53880 34896 ft 413 kts 247°
2026-05-07 18:03 43.50139 -9.61078 34899 ft 413 kts 246°
2026-05-07 18:04 43.47765 -9.68285 34901 ft 413 kts 246°
2026-05-07 18:04 43.45384 -9.75485 34904 ft 413 kts 246°
2026-05-07 18:05 43.43001 -9.82665 34903 ft 413 kts 246°
2026-05-07 18:05 43.40625 -9.89802 34906 ft 413 kts 246°
2026-05-07 18:06 43.38244 -9.96955 34902 ft 411 kts 246°
2026-05-07 18:06 43.35852 -10.04117 34909 ft 411 kts 246°
2026-05-07 18:07 43.33456 -10.11255 34908 ft 412 kts 245°
2026-05-07 18:07 43.31060 -10.18387 34911 ft 412 kts 246°
2026-05-07 18:08 43.28657 -10.25523 34906 ft 412 kts 245°
2026-05-07 18:08 43.26246 -10.32668 34913 ft 413 kts 245°
2026-05-07 18:09 43.23826 -10.39807 34912 ft 412 kts 245°
2026-05-07 18:09 43.21399 -10.46949 34919 ft 413 kts 245°
2026-05-07 18:10 43.18968 -10.54080 34918 ft 413 kts 245°
2026-05-07 18:10 43.16534 -10.61222 34915 ft 414 kts 244°
2026-05-07 18:11 43.14088 -10.68371 34918 ft 414 kts 244°
2026-05-07 18:11 43.11643 -10.75489 34915 ft 412 kts 244°
2026-05-07 18:12 43.09202 -10.82587 34923 ft 412 kts 244°
2026-05-07 18:12 43.06744 -10.89675 34921 ft 412 kts 244°
2026-05-07 18:13 43.04316 -10.96723 34918 ft 414 kts 244°
2026-05-07 18:13 43.01854 -11.03834 34922 ft 414 kts 244°
2026-05-07 18:14 42.99372 -11.10978 34921 ft 414 kts 243°
2026-05-07 18:14 42.96909 -11.18041 34932 ft 414 kts 243°
2026-05-07 18:15 42.94434 -11.25124 34931 ft 414 kts 243°
2026-05-07 18:15 42.91952 -11.32214 34935 ft 414 kts 243°
2026-05-07 18:16 42.89458 -11.39308 34922 ft 415 kts 243°
2026-05-07 18:16 42.86957 -11.46411 34922 ft 416 kts 243°
2026-05-07 18:17 42.84449 -11.53521 34922 ft 415 kts 243°
2026-05-07 18:17 42.81960 -11.60550 34928 ft 412 kts 243°
2026-05-07 18:18 42.79464 -11.67583 34924 ft 412 kts 242°
2026-05-07 18:18 42.76971 -11.74595 34922 ft 412 kts 242°
2026-05-07 18:19 42.74472 -11.81601 34926 ft 412 kts 242°
2026-05-07 18:19 42.71981 -11.88571 34918 ft 412 kts 242°
2026-05-07 18:20 42.69476 -11.95562 34919 ft 412 kts 242°
2026-05-07 18:20 42.66271 -12.01934 34914 ft 410 kts 224°
2026-05-07 18:21 42.61998 -12.07042 34938 ft 413 kts 220°
2026-05-07 18:21 42.57637 -12.12120 34921 ft 411 kts 220°
2026-05-07 18:22 42.53373 -12.17135 34913 ft 407 kts 220°
2026-05-07 18:22 42.49083 -12.22180 34913 ft 408 kts 220°
2026-05-07 18:23 42.44801 -12.27209 34915 ft 408 kts 220°
2026-05-07 18:23 42.40515 -12.32232 34919 ft 408 kts 220°
2026-05-07 18:24 42.36322 -12.37133 34926 ft 408 kts 220°
2026-05-07 18:24 42.32027 -12.42150 34931 ft 411 kts 219°
2026-05-07 18:25 42.27675 -12.47217 34922 ft 412 kts 219°
2026-05-07 18:25 42.23333 -12.52266 34919 ft 412 kts 219°
2026-05-07 18:26 42.18989 -12.57308 34921 ft 412 kts 219°
2026-05-07 18:26 42.14636 -12.62357 34916 ft 412 kts 219°
2026-05-07 18:27 42.10292 -12.67379 34913 ft 412 kts 219°
2026-05-07 18:27 42.05956 -12.72383 34916 ft 412 kts 219°
2026-05-07 18:28 42.01567 -12.77441 34932 ft 413 kts 219°
2026-05-07 18:29 41.92808 -12.87501 34913 ft 413 kts 219°
2026-05-07 18:29 41.88420 -12.92529 34918 ft 413 kts 219°
2026-05-07 18:30 41.84032 -12.97547 34910 ft 414 kts 219°
2026-05-07 18:30 41.79657 -13.02542 34914 ft 412 kts 219°
2026-05-07 18:31 41.75285 -13.07520 34916 ft 412 kts 219°
2026-05-07 18:31 41.70937 -13.12463 34919 ft 412 kts 219°
2026-05-07 18:32 41.66556 -13.17440 34919 ft 414 kts 218°